TimePST,TemperatureF,Dew PointF,Humidity,Sea Level PressureIn,VisibilityMPH,Wind Direction,Wind SpeedMPH,Gust SpeedMPH,PrecipitationIn,Events,Conditions,WindDirDegrees,DateUTC
12:06 AM,51.8,51.8,100,30.21,2.5,Calm,Calm,-,N/A,,Overcast,0,2013-01-25 08:06:00
12:24 AM,50.0,50.0,100,30.21,2.0,Calm,Calm,-,N/A,,Mostly Cloudy,0,2013-01-25 08:24:00
12:39 AM,50.0,48.2,94,30.21,2.0,Calm,Calm,-,N/A,,Mostly Cloudy,0,2013-01-25 08:39:00
12:53 AM,48.9,48.9,100,30.21,1.8,Calm,Calm,-,N/A,,Overcast,0,2013-01-25 08:53:00
1:12 AM,48.2,48.2,100,30.21,0.5,Calm,Calm,-,N/A,Fog,Fog,0,2013-01-25 09:12:00
1:53 AM,48.0,48.0,100,30.21,0.2,Calm,Calm,-,N/A,Fog,Fog,0,2013-01-25 09:53:00
2:07 AM,48.2,48.2,100,30.21,0.2,NW,3.5,-,N/A,Fog,Fog,310,2013-01-25 10:07:00
2:19 AM,48.2,48.2,100,30.21,0.2,WNW,3.5,-,N/A,Fog,Fog,300,2013-01-25 10:19:00
2:29 AM,48.2,48.2,100,30.21,0.5,Calm,Calm,-,N/A,Fog,Fog,0,2013-01-25 10:29:00
2:45 AM,50.0,50.0,100,30.21,1.2,Calm,Calm,-,N/A,,Overcast,0,2013-01-25 10:45:00
2:53 AM,50.0,50.0,100,30.21,1.8,Calm,Calm,-,N/A,,Overcast,0,2013-01-25 10:53:00
3:42 AM,48.2,48.2,100,30.19,0.8,Calm,Calm,-,N/A,,Overcast,0,2013-01-25 11:42:00
3:53 AM,48.9,48.9,100,30.19,0.8,WNW,3.5,-,N/A,,Overcast,300,2013-01-25 11:53:00
4:04 AM,48.2,48.2,100,30.19,1.8,WNW,4.6,-,N/A,,Overcast,300,2013-01-25 12:04:00
4:11 AM,48.2,48.2,100,30.19,2.0,WNW,3.5,-,N/A,,Overcast,290,2013-01-25 12:11:00
4:34 AM,48.2,48.2,100,30.18,1.5,Calm,Calm,-,N/A,,Overcast,0,2013-01-25 12:34:00
4:53 AM,46.9,46.9,100,30.19,0.5,Calm,Calm,-,N/A,Fog,Fog,0,2013-01-25 12:53:00
5:01 AM,48.2,46.4,93,30.19,0.2,Calm,Calm,-,N/A,Fog,Fog,0,2013-01-25 13:01:00
5:10 AM,46.4,46.4,100,30.19,0.2,Calm,Calm,-,N/A,Fog,Fog,0,2013-01-25 13:10:00
5:53 AM,48.0,48.0,100,30.19,1.2,Calm,Calm,-,N/A,,Overcast,0,2013-01-25 13:53:00
6:14 AM,48.2,48.2,100,30.19,2.5,Calm,Calm,-,N/A,,Overcast,0,2013-01-25 14:14:00
6:21 AM,48.2,48.2,100,30.19,3.0,Calm,Calm,-,N/A,,Overcast,0,2013-01-25 14:21:00
6:53 AM,48.9,48.9,100,30.19,3.0,Calm,Calm,-,N/A,,Overcast,0,2013-01-25 14:53:00
7:48 AM,48.2,48.2,100,30.19,1.8,Calm,Calm,-,N/A,,Mostly Cloudy,0,2013-01-25 15:48:00
7:53 AM,48.9,48.9,100,30.19,1.5,Calm,Calm,-,N/A,,Mostly Cloudy,0,2013-01-25 15:53:00
8:33 AM,51.8,51.8,100,30.19,2.5,Calm,Calm,-,N/A,,Overcast,0,2013-01-25 16:33:00
8:49 AM,51.8,51.8,100,30.19,4.0,Calm,Calm,-,N/A,,Overcast,0,2013-01-25 16:49:00
8:53 AM,52.0,52.0,100,30.19,6.0,Calm,Calm,-,N/A,,Overcast,0,2013-01-25 16:53:00
9:53 AM,57.0,53.1,87,30.19,10.0,Calm,Calm,-,N/A,,Mostly Cloudy,0,2013-01-25 17:53:00
10:01 AM,57.2,51.8,82,30.19,10.0,Calm,Calm,-,N/A,,Scattered Clouds,0,2013-01-25 18:01:00
10:53 AM,61.0,52.0,72,30.18,10.0,NNW,4.6,-,N/A,,Clear,330,2013-01-25 18:53:00
11:53 AM,63.0,52.0,67,30.16,10.0,Calm,Calm,-,N/A,,Partly Cloudy,0,2013-01-25 19:53:00
12:53 PM,64.0,52.0,65,30.12,10.0,Calm,Calm,-,N/A,,Clear,0,2013-01-25 20:53:00
1:53 PM,64.9,52.0,63,30.10,10.0,Variable,3.5,-,N/A,,Clear,0,2013-01-25 21:53:00
2:53 PM,66.0,53.1,63,30.09,10.0,Variable,3.5,-,N/A,,Partly Cloudy,0,2013-01-25 22:53:00
3:53 PM,64.9,53.1,65,30.07,10.0,Calm,Calm,-,N/A,,Clear,0,2013-01-25 23:53:00
4:53 PM,62.1,54.0,75,30.06,10.0,SE,4.6,-,N/A,,Scattered Clouds,140,2013-01-26 00:53:00
5:53 PM,61.0,54.0,78,30.06,10.0,SSE,3.5,-,N/A,,Overcast,160,2013-01-26 01:53:00
6:17 PM,60.8,53.6,77,30.06,10.0,South,3.5,-,N/A,,Mostly Cloudy,170,2013-01-26 02:17:00
6:35 PM,59.0,53.6,82,30.06,10.0,Calm,Calm,-,N/A,,Mostly Cloudy,0,2013-01-26 02:35:00
6:53 PM,57.9,53.1,84,30.06,10.0,Calm,Calm,-,N/A,,Mostly Cloudy,0,2013-01-26 02:53:00
7:26 PM,57.2,53.6,88,30.06,10.0,Calm,Calm,-,N/A,,Mostly Cloudy,0,2013-01-26 03:26:00
7:37 PM,57.2,53.6,88,30.06,10.0,Calm,Calm,-,N/A,,Mostly Cloudy,0,2013-01-26 03:37:00
7:53 PM,55.9,53.1,90,30.06,10.0,Calm,Calm,-,N/A,,Partly Cloudy,0,2013-01-26 03:53:00
8:10 PM,55.4,53.6,94,30.07,10.0,Calm,Calm,-,N/A,,Mostly Cloudy,0,2013-01-26 04:10:00
8:20 PM,55.4,53.6,94,30.06,10.0,Calm,Calm,-,N/A,,Scattered Clouds,0,2013-01-26 04:20:00
8:53 PM,54.0,52.0,93,30.06,10.0,Calm,Calm,-,N/A,,Clear,0,2013-01-26 04:53:00
9:53 PM,52.0,51.1,97,30.06,9.0,Calm,Calm,-,N/A,,Partly Cloudy,0,2013-01-26 05:53:00
10:53 PM,52.0,51.1,97,30.06,10.0,Calm,Calm,-,N/A,,Overcast,0,2013-01-26 06:53:00
11:53 PM,50.0,48.9,96,30.05,10.0,Calm,Calm,-,N/A,,Mostly Cloudy,0,2013-01-26 07:53:00